Location: Unspecified
(0.0000°N, 0.0000°E)
Time: 22:46:04
(UTC+01:00)

Haruka - Visible Passes

Search period start: 06 December 2016 00:00
Search period end: 16 December 2016 00:00
Orbit: 544 x 21217 km, 31.3° (Epoch: 05 December)

Date Brightness Start Highest point End Pass type
(mag) Time Alt. Az. Time Alt. Az. Time Alt. Az.
06 Dec 8.2 05:36:29 15° NW 07:53:38 74° W 10:44:23 10° SE visible
07 Dec 8.4 00:25:00 20° NE 00:25:00 20° NE 03:39:10 10° E visible
08 Dec 8.1 01:29:42 34° NNE 01:30:58 34° NE 05:51:14 10° ESE visible
08 Dec 3.7 19:35:08 10° W 19:38:15 30° NNW 19:41:48 10° NE visible
09 Dec 7.9 02:34:25 43° N 04:31:00 50° E 07:16:29 10° SE visible
09 Dec 5.1 20:44:53 10° NW 20:46:17 13° NNW 20:46:17 13° NNW visible
10 Dec 7.9 03:39:08 41° NNW 05:31:07 72° E 08:32:45 10° SE visible
11 Dec 8.1 04:43:52 29° NW 06:40:24 86° W 09:45:17 10° SE visible
12 Dec 8.3 05:48:36 14° NW 07:52:28 65° W 10:55:56 10° SE visible
13 Dec 8.4 00:37:08 26° NE 00:37:08 26° NE 04:28:44 10° ESE visible
14 Dec 8.1 01:41:52 41° NNE 01:49:49 41° NE 06:09:09 10° ESE visible
14 Dec 4.7 19:47:15 10° WNW 19:49:13 14° NNW 19:51:36 10° NNE visible
15 Dec 8.0 02:46:36 49° N 03:45:12 60° ENE 07:30:12 10° SE visible
